^^
Meteo Knjazevac Station Historical Data
Daily Summary for June 25, 2022 Units:  English    Metric   Both
Daily Weekly Monthly Yearly Custom
  High: Low: Average:
Temperature: 62.8 °F 60.4 °F 61.3 °F
Dew Point: 59.9 °F 57.8 °F 58.9 °F
Humidity: 94% 88% 92%
Wind Speed: 3mph 0mph 1.3mph
Wind Gust: 5mph - -
Wind- - West
Pressure: 29.98 in 29.96 in -
Precipitation: 0.00 in    
Historical Graphs
 
 
Tabular Data for June 25, 2022
Time Temperature Dew Point Pressure Wind Wind Speed Wind Gust Humidity Rainfall Rate (Hourly) solar Conditions
00:10 62.8 °F 59.2 °F 29.98 in Calm   3 mph 88% 0.00 in 0 W/m2
00:20 62.3 °F 58.7 °F 29.98 in SW 2 mph 3 mph 88% 0.00 in 0 W/m2
00:30 61.8 °F 58.2 °F 29.98 in West 1 mph 4 mph 88% 0.00 in 0 W/m2
00:40 61.5 °F 58.2 °F 29.97 in West 1 mph 3 mph 89% 0.00 in 0 W/m2
00:50 61.3 °F 58.4 °F 29.97 in West 2 mph 4 mph 90% 0.00 in 0 W/m2
01:00 61.3 °F 58.4 °F 29.97 in WNW 1 mph 4 mph 90% 0.00 in 0 W/m2
01:10 61.2 °F 58.2 °F 29.97 in WNW 2 mph 4 mph 90% 0.00 in 0 W/m2
01:20 61 °F 58 °F 29.98 in SW 2 mph 3 mph 90% 0.00 in 0 W/m2
01:30 60.4 °F 57.8 °F 29.98 in WSW 2 mph 5 mph 91% 0.00 in 0 W/m2
01:40 60.4 °F 57.8 °F 29.97 in West 2 mph 4 mph 91% 0.00 in 0 W/m2
01:50 60.4 °F 58.4 °F 29.98 in West 2 mph 4 mph 93% 0.00 in 0 W/m2
02:00 60.4 °F 58.4 °F 29.98 in West 1 mph 4 mph 93% 0.00 in 0 W/m2
02:10 60.6 °F 58.6 °F 29.97 in West 1 mph 2 mph 93% 0.00 in 0 W/m2
02:20 60.6 °F 58.6 °F 29.98 in West 2 mph 4 mph 93% 0.00 in 0 W/m2
02:30 60.8 °F 58.8 °F 29.98 in WNW 1 mph 5 mph 93% 0.00 in 0 W/m2
02:40 61 °F 58.6 °F 29.97 in Calm   4 mph 92% 0.00 in 0 W/m2
02:50 61.3 °F 59.3 °F 29.98 in Calm   3 mph 93% 0.00 in 0 W/m2
03:00 61.3 °F 58.7 °F 29.98 in WNW 1 mph 2 mph 91% 0.00 in 0 W/m2
03:10 61.3 °F 59.3 °F 29.98 in WNW 2 mph 3 mph 93% 0.00 in 0 W/m2
03:20 61.4 °F 59.4 °F 29.97 in Calm   2 mph 93% 0.00 in 0 W/m2
03:30 61.6 °F 59.6 °F 29.97 in West 1 mph 2 mph 93% 0.00 in 0 W/m2
03:50 61.5 °F 59.5 °F 29.96 in West 1 mph 3 mph 93% 0.00 in 0 W/m2
04:10 61.7 °F 59.7 °F 29.97 in West 2 mph 5 mph 93% 0.00 in 0 W/m2
04:20 61.7 °F 59.7 °F 29.97 in NW 1 mph 3 mph 93% 0.00 in 0 W/m2
04:30 61.5 °F 59.8 °F 29.97 in WSW 2 mph 2 mph 94% 0.00 in 0 W/m2
04:40 61.5 °F 59.8 °F 29.97 in WNW 1 mph 3 mph 94% 0.00 in 0 W/m2
04:50 61.5 °F 59.8 °F 29.97 in WNW 2 mph 4 mph 94% 0.00 in 2 W/m2
05:00 61.5 °F 59.8 °F 29.97 in West 3 mph 5 mph 94% 0.00 in 4 W/m2
05:10 61.6 °F 59.9 °F 29.98 in WNW 1 mph 4 mph 94% 0.00 in 9 W/m2
Knjazevac, Serbia
Compliments of Weather Underground - 2 mb